When you browse on this site, cookies collect data to enhance your experience and personalize the content and advertising you see.
Visit our Privacy Policy to learn more. By continuing to use the site, you agree to this use of cookies and data.
  • In United Kingdom
  • List of Countries
  • For 7 days
  • Water Temperature
  • Satellite Maps
  • Weather Map
  • Weather Widgets
  • user-avatar
    Login

    Hourly Weather Dobiezyn

    Today, 24 January, Thursday

    Time Temperature Precipitation Wind Pressure Humidity
    00:00 -8°C° 0 mm 3 mps 749 mmHg 79%
    01:00 -8°C° 0 mm 3 mps 750 mmHg 80%
    02:00 -9°C° 0 mm 3 mps 750 mmHg 81%
    03:00 -9°C° 0 mm 3 mps 750 mmHg 81%
    04:00 -9°C° 0 mm 3 mps 750 mmHg 82%
    05:00 -9°C° 0 mm 3 mps 750 mmHg 82%
    06:00 -9°C° 0 mm 3 mps 750 mmHg 82%
    07:00 -9°C° 0 mm 3 mps 751 mmHg 84%
    08:00 -9°C° 0 mm 3 mps 751 mmHg 80%
    09:00 -9°C° 0 mm 4 mps 751 mmHg 77%
    10:00 -9°C° 0 mm 4 mps 751 mmHg 73%
    11:00 -8°C° 0 mm 4 mps 751 mmHg 71%
    12:00 -8°C° 0 mm 4 mps 752 mmHg 69%
    13:00 -7°C° 0 mm 4 mps 752 mmHg 67%
    14:00 -7°C° 0 mm 4 mps 752 mmHg 69%
    15:00 -7°C° 0 mm 3 mps 752 mmHg 71%
    16:00 -7°C° 0 mm 3 mps 752 mmHg 72%
    17:00 -7°C° 0 mm 3 mps 752 mmHg 74%
    18:00 -8°C° 0 mm 3 mps 752 mmHg 75%
    19:00 -8°C° 0 mm 3 mps 752 mmHg 77%
    20:00 -8°C° 0 mm 3 mps 752 mmHg 77%
    21:00 -8°C° 0 mm 3 mps 752 mmHg 77%
    22:00 -8°C° 0 mm 3 mps 753 mmHg 78%
    23:00 -8°C° 0 mm 2 mps 753 mmHg 79%

    Tomorrow, 25 January, Friday

    Time Temperature Precipitation Wind Pressure Humidity
    00:00 -8°C° 0 mm 2 mps 753 mmHg 80%
    01:00 -8°C° 0 mm 2 mps 753 mmHg 81%
    02:00 -8°C° 0 mm 2 mps 753 mmHg 82%
    03:00 -8°C° 0 mm 2 mps 753 mmHg 83%
    04:00 -8°C° 0 mm 2 mps 753 mmHg 84%
    05:00 -8°C° 0 mm 2 mps 753 mmHg 84%
    06:00 -7°C° 0 mm 1 mps 752 mmHg 84%
    07:00 -7°C° 0 mm 1 mps 752 mmHg 85%
    08:00 -7°C° 0 mm 1 mps 753 mmHg 82%
    09:00 -6°C° 0 mm 1 mps 753 mmHg 80%
    10:00 -6°C° 0 mm 0 mps 753 mmHg 77%
    11:00 -4°C° 0 mm 1 mps 753 mmHg 75%
    12:00 -4°C° 0 mm 1 mps 753 mmHg 73%
    13:00 -5°C° 0 mm 2 mps 752 mmHg 71%
    14:00 -5°C° 0 mm 2 mps 752 mmHg 72%
    15:00 -5°C° 0 mm 2 mps 752 mmHg 72%
    16:00 -5°C° 0 mm 2 mps 752 mmHg 72%
    17:00 -6°C° 0 mm 2 mps 752 mmHg 73%
    18:00 -6°C° 0 mm 2 mps 752 mmHg 74%
    19:00 -4°C° 0 mm 1 mps 752 mmHg 75%
    20:00 -6°C° 0 mm 2 mps 752 mmHg 75%
    21:00 -6°C° 0 mm 2 mps 751 mmHg 75%
    22:00 -7°C° 0 mm 3 mps 751 mmHg 75%
    23:00 -7°C° 0 mm 3 mps 750 mmHg 75%

    Day after tomorrow, 26 January, Saturday

    Time Temperature Precipitation Wind Pressure Humidity
    00:00 -7°C° 0 mm 3 mps 749 mmHg 75%
    01:00 -6°C° 0 mm 3 mps 749 mmHg 74%
    02:00 -7°C° 0.2 mm 4 mps 748 mmHg 80%
    03:00 -7°C° 0.2 mm 4 mps 746 mmHg 86%
    04:00 -7°C° 0.2 mm 4 mps 745 mmHg 91%
    05:00 -6°C° 0.7 mm 5 mps 744 mmHg 92%
    06:00 -6°C° 0.7 mm 5 mps 744 mmHg 94%
    07:00 -5°C° 0.7 mm 5 mps 743 mmHg 95%
    08:00 -4°C° 0.3 mm 5 mps 742 mmHg 95%
    09:00 -2°C° 0.3 mm 5 mps 742 mmHg 94%
    10:00 -1°C° 0.3 mm 5 mps 741 mmHg 94%
    11:00 -1°C° 0 mm 5 mps 741 mmHg 94%
    12:00 0°C° 0 mm 5 mps 741 mmHg 94%
    13:00 0°C° 0 mm 5 mps 741 mmHg 93%
    14:00 0°C° 0 mm 4 mps 741 mmHg 94%
    15:00 -1°C° 0 mm 4 mps 741 mmHg 94%
    16:00 -1°C° 0 mm 4 mps 742 mmHg 94%
    17:00 -1°C° 0.1 mm 4 mps 742 mmHg 95%
    18:00 0°C° 0.1 mm 3 mps 742 mmHg 95%
    19:00 0°C° 0.1 mm 3 mps 743 mmHg 96%
    20:00 -1°C° 0 mm 2 mps 743 mmHg 96%
    21:00 -1°C° 0 mm 2 mps 743 mmHg 96%
    22:00 +1°C° 0 mm 1 mps 743 mmHg 96%
    23:00 0°C° 0 mm 1 mps 743 mmHg 95%

    27 January, Sunday

    Time Temperature Precipitation Wind Pressure Humidity
    00:00 -2°C° 0 mm 2 mps 743 mmHg 95%
    01:00 -2°C° 0 mm 2 mps 742 mmHg 94%
    02:00 -2°C° 0.2 mm 3 mps 742 mmHg 95%
    03:00 -2°C° 0.2 mm 3 mps 741 mmHg 95%
    04:00 -2°C° 0.2 mm 3 mps 741 mmHg 96%
    05:00 -3°C° 0.4 mm 4 mps 740 mmHg 96%
    06:00 -3°C° 0.4 mm 4 mps 740 mmHg 96%
    07:00 -2°C° 0.4 mm 5 mps 739 mmHg 96%
    08:00 -2°C° 0.5 mm 4 mps 739 mmHg 96%
    09:00 -2°C° 0.5 mm 4 mps 739 mmHg 97%
    10:00 -1°C° 0.5 mm 4 mps 738 mmHg 98%
    11:00 0°C° 0.2 mm 3 mps 738 mmHg 98%
    12:00 0°C° 0.2 mm 3 mps 738 mmHg 99%
    13:00 +2°C° 0.2 mm 2 mps 737 mmHg 99%
    14:00 +2°C° 0.1 mm 2 mps 737 mmHg 99%
    15:00 +2°C° 0.1 mm 2 mps 737 mmHg 98%
    16:00 +2°C° 0.1 mm 2 mps 737 mmHg 98%
    17:00 +1°C° 0.1 mm 2 mps 736 mmHg 97%
    18:00 0°C° 0.1 mm 3 mps 736 mmHg 97%
    19:00 0°C° 0.1 mm 3 mps 736 mmHg 97%
    20:00 0°C° 0.4 mm 3 mps 736 mmHg 97%
    21:00 +1°C° 0.4 mm 2 mps 736 mmHg 97%
    22:00 +1°C° 0.4 mm 2 mps 736 mmHg 97%
    23:00 +1°C° 0 mm 2 mps 736 mmHg 96%

    28 January, Monday

    Time Temperature Precipitation Wind Pressure Humidity
    00:00 +1°C° 0 mm 2 mps 735 mmHg 95%
    01:00 +1°C° 0 mm 2 mps 735 mmHg 94%
    02:00 +1°C° 0 mm 2 mps 735 mmHg 94%
    03:00 -1°C° 0 mm 2 mps 735 mmHg 93%
    04:00 -1°C° 0 mm 2 mps 735 mmHg 93%
    05:00 -1°C° 0 mm 2 mps 735 mmHg 92%
    06:00 -1°C° 0 mm 2 mps 735 mmHg 92%
    07:00 -1°C° 0 mm 2 mps 735 mmHg 92%
    08:00 -1°C° 0 mm 2 mps 735 mmHg 92%
    09:00 +1°C° 0 mm 2 mps 735 mmHg 93%
    10:00 +1°C° 0 mm 2 mps 735 mmHg 94%
    11:00 +1°C° 0 mm 2 mps 735 mmHg 95%
    12:00 +2°C° 0 mm 2 mps 735 mmHg 97%
    13:00 +2°C° 0 mm 2 mps 735 mmHg 98%
    14:00 +2°C° 0 mm 2 mps 735 mmHg 96%
    15:00 +2°C° 0 mm 2 mps 735 mmHg 95%
    16:00 +1°C° 0 mm 2 mps 735 mmHg 93%
    17:00 +1°C° 0 mm 2 mps 735 mmHg 93%
    18:00 +1°C° 0 mm 2 mps 735 mmHg 93%
    19:00 +1°C° 0 mm 2 mps 736 mmHg 93%
    20:00 0°C° 0.1 mm 3 mps 736 mmHg 94%
    21:00 0°C° 0.1 mm 3 mps 737 mmHg 95%
    22:00 -1°C° 0.1 mm 4 mps 737 mmHg 96%
    23:00 -1°C° 0.2 mm 5 mps 738 mmHg 93%

    29 January, Tuesday

    Time Temperature Precipitation Wind Pressure Humidity
    00:00 -2°C° 0.2 mm 7 mps 738 mmHg 91%
    01:00 -2°C° 0.2 mm 8 mps 739 mmHg 88%
    02:00 -4°C° 0.1 mm 8 mps 740 mmHg 86%
    03:00 -4°C° 0.1 mm 8 mps 741 mmHg 84%
    04:00 -5°C° 0.1 mm 8 mps 742 mmHg 82%
    05:00 -5°C° 0 mm 8 mps 743 mmHg 82%
    06:00 -6°C° 0 mm 8 mps 743 mmHg 81%
    07:00 -6°C° 0 mm 7 mps 744 mmHg 80%
    08:00 -6°C° 0 mm 7 mps 745 mmHg 79%
    09:00 -5°C° 0 mm 6 mps 746 mmHg 78%
    10:00 -5°C° 0 mm 6 mps 746 mmHg 77%
    11:00 -5°C° 0 mm 5 mps 747 mmHg 77%
    12:00 -4°C° 0 mm 5 mps 747 mmHg 78%
    13:00 -3°C° 0 mm 4 mps 747 mmHg 78%
    14:00 -3°C° 0.1 mm 4 mps 747 mmHg 81%
    15:00 -2°C° 0.1 mm 3 mps 747 mmHg 84%
    16:00 -1°C° 0.1 mm 2 mps 747 mmHg 87%
    17:00 -2°C° 0 mm 3 mps 747 mmHg 87%
    18:00 -2°C° 0 mm 3 mps 747 mmHg 87%
    19:00 -4°C° 0 mm 3 mps 747 mmHg 88%
    20:00 -4°C° 0 mm 3 mps 747 mmHg 87%
    21:00 -4°C° 0 mm 3 mps 747 mmHg 86%
    22:00 -4°C° 0 mm 4 mps 747 mmHg 86%
    23:00 -4°C° 0 mm 4 mps 747 mmHg 85%
    Show more